[[{"header":{"parameterUnit":"m.s-1","parameterCategory":2,"la1":30.2991,"la2":30.254,"lo1":-89.0895,"lo2":-89.0444,"dy":0.0017,"dx":0.0017,"nx":28,"ny":28,"refTime":"2023-08-08T03:00:00:Z","depth":"0","parameterNumber":2,"parameterNumberName":"U-component_of_CURRENTS"},"data":[0,0,0,0,0,0,0,0,0,0,0,0,0,0,0,0,0,0,0,0,0,0,0,0,0,0,0,0,0,0,0,0,0,0,0,0,0,0,0,0,0,0,0,0,0,0,0,0,0,0,0,0,0,0,0,0,0,0,0.2501,0.2501,0,0.2488,0.2487,0.2486,0.2425,0.2424,0.2424,0.2423,0.2451,0.2453,0.2454,0,0,0,0,0,0,0,0,0,0,0,0,0,0.2445,0.2446,0.2501,0.2501,0.2502,0.2488,0.2487,0.2486,0.2425,0.2424,0.2423,0.2422,0.2451,0.2453,0.2454,0,0,0,0,0,0,0,0,0,0,0,0,0,0.2448,0.2446,0.2501,0.2474,0.2472,0.2488,0.2487,0.2486,0.2426,0.2424,0.2423,0.2422,0.245,0.2452,0.2455,0.2495,0,0,0.2462,0.2463,0,0,0,0,0,0,0,0,0.2448,0.245,0.2478,0.2476,0.2474,0.2462,0.2478,0.2493,0.2426,0.2437,0.2423,0.2421,0.2464,0.2465,0.2456,0.2496,0.2497,0.2462,0.2463,0.2464,0.2465,0,0,0,0,0,0,0,0.2448,0.245,0.2489,0.2479,0.2476,0.2454,0.2453,0.248,0.2454,0.2436,0.2433,0.2442,0.2462,0.2454,0.2456,0.2498,0.2462,0.2464,0.2465,0.2466,0.2639,0.2642,0,0,0,0,0,0,0.2466,0.245,0.249,0.2489,0.2465,0.2457,0.2455,0.2462,0.2452,0.2451,0.2443,0.2439,0.245,0.2454,0.2457,0.2576,0.2464,0.2467,0.2468,0.2636,0.2639,0.2643,0,0,0,0,0,0,0.2465,0.2469,0.249,0.2474,0.2476,0.246,0.2468,0.2463,0.2458,0.2459,0.2456,0.2445,0.2449,0.2454,0.2502,0.2574,0.2468,0.247,0.2632,0.2637,0.2641,0.2769,0,0,0,0,0,0,0.2463,0.2469,0.2479,0.2476,0.2478,0.2509,0.247,0.2464,0.2469,0.2463,0.2461,0.2461,0.2449,0.2499,0.2505,0.2576,0.2472,0.2628,0.2634,0.264,0.2761,0.2778,0.2792,0,0,0,0,0,0.2461,0.2479,0.2479,0.2484,0.2493,0.251,0.2509,0.2488,0.2471,0.2477,0.2485,0.2461,0.2541,0.2504,0.2509,0.2583,0.2625,0.2632,0.2639,0.2754,0.2774,0.2792,0,0,0,0,0,0,0.2475,0.2475,0.2475,0.2497,0.251,0.2502,0.2505,0.25,0.2509,0.2501,0.2496,0.2499,0.2579,0.256,0.2519,0.2651,0.2582,0.2591,0.2668,0.2687,0.2702,0.2697,0.2474,0,0,0,0,0,0.2485,0.2487,0.2499,0.2521,0.2523,0.2518,0.2523,0.2514,0.2524,0.2523,0.2542,0.2564,0.2614,0.263,0.2664,0.2726,0.2755,0.2779,0.2795,0.2808,0.281,0.2924,0.295,0.2666,0.2666,0.2666,0,0,0.2503,0.2501,0.2508,0.2523,0.2521,0.2546,0.2515,0.2526,0.2566,0.2531,0.2596,0.2625,0.2646,0.2726,0.2759,0.2715,0.2912,0.2817,0.2828,0.2822,0.2934,0.2962,0.2986,0.2671,0.267,0.267,0,0,0.2541,0.2533,0.2548,0.2552,0.256,0.2566,0.2577,0.2592,0.261,0.2674,0.2682,0.2752,0.2802,0.285,0.2874,0.2996,0.3001,0.3009,0.3074,0.3187,0.3211,0.3232,0.3339,0.3369,0.3005,0.3005,0.3005,0,0.2555,0.2583,0.2562,0.2575,0.2587,0.2583,0.2614,0.2643,0.2685,0.2725,0.2709,0.2844,0.2869,0.2985,0.3031,0.3036,0.3089,0.3001,0.3208,0.323,0.325,0.3353,0.3385,0.3012,0.3011,0.3011,0.301,0,0.2611,0.2624,0.2632,0.2648,0.2663,0.2683,0.2718,0.2761,0.279,0.2829,0.295,0.2997,0.3067,0.3111,0.3107,0.3269,0.3262,0.3226,0.3159,0.3286,0.3387,0.3418,0.3022,0.302,0.3018,0.3016,0,0,0.2643,0.2665,0.2664,0.2668,0.2694,0.2703,0.2789,0.2863,0.2918,0.2994,0.309,0.3209,0.3225,0.3256,0.3284,0.3383,0.3594,0.3365,0.3368,0.3469,0.3854,0.3868,0.3902,0.3595,0.3601,0.3605,0.388,0,0.2687,0.2716,0.2734,0.2772,0.2779,0.2803,0.288,0.2944,0.3009,0.3105,0.3191,0.3289,0.3284,0.3328,0.3436,0.3555,0.3674,0.3523,0.3715,0.3721,0.3718,0.3938,0.3843,0.4082,0.391,0.3915,0.3918,0,0.2725,0.2732,0.2773,0.2803,0.2813,0.2847,0.2928,0.3,0.3132,0.319,0.3296,0.3355,0.3532,0.3491,0.3769,0.3673,0.3778,0.3862,0.3873,0.3856,0.3793,0.3921,0.4143,0.3903,0.3964,0.3961,0.3957,0,0.2708,0.2752,0.278,0.2784,0.2835,0.2868,0.2911,0.3019,0.3085,0.3242,0.3306,0.3493,0.3598,0.3765,0.3934,0.3874,0.4228,0.4159,0.4276,0.4277,0.4217,0.4204,0.4223,0.4367,0.4366,0.4365,0.4364,0,0.2719,0.2729,0.2763,0.2757,0.2793,0.284,0.2907,0.298,0.3107,0.3199,0.3333,0.3448,0.3674,0.3877,0.4006,0.4262,0.4297,0.435,0.4375,0.4262,0.4251,0.4049,0.3986,0.4375,0.4373,0.4371,0.4369,0,0.2675,0.271,0.2715,0.2759,0.277,0.2781,0.2859,0.292,0.3048,0.3175,0.3233,0.3475,0.3759,0.3976,0.4285,0.4368,0.4497,0.4654,0.4509,0.4513,0.4374,0.4324,0.4345,0.4301,0.4856,0.4859,0.4861,0,0.2657,0.2652,0.2671,0.2669,0.2679,0.2711,0.2747,0.2867,0.2941,0.3185,0.3253,0.3558,0.3775,0.4241,0.4493,0.4792,0.4587,0.4819,0.4689,0.4412,0.4376,0.4175,0.412,0.4678,0.4678,0.4679,0.4679,0,0.2599,0.2601,0.2607,0.2593,0.2606,0.2633,0.2695,0.2738,0.2916,0.3041,0.3254,0.3452,0.3942,0.4221,0.4617,0.479,0.4599,0.4834,0.4594,0.4309,0.405,0.4,0.443,0.4682,0.4681,0.4681,0.4681,0.4681,0.2549,0.253,0.2532,0.2522,0.253,0.2548,0.256,0.2665,0.2772,0.2964,0.3187,0.3446,0.3865,0.4439,0.4578,0.467,0.4679,0.4548,0.4542,0.438,0.4239,0.4682,0.4915,0.4916,0.4917,0.4917,0.4918,0,0.247,0.2466,0.246,0.2446,0.2426,0.246,0.2525,0.256,0.2658,0.2862,0.3062,0.344,0.3758,0.4062,0.4355,0.4315,0.4215,0.4209,0.3854,0.3848,0.4285,0.4165,0.4187,0.4187,0.4187,0.4188,0.4188,0.4188,0.2437,0.2401,0.2407,0.2351,0.2338,0.2325,0.2347,0.2419,0.2544,0.2724,0.2892,0.3117,0.3482,0.379,0.3835,0.3833,0.359,0.3534,0.351,0.3707,0.3731,0.3754,0.3616,0.3522,0.3522,0.2911,0.2907,0.2903]},{"header":{"parameterUnit":"m.s-1","parameterCategory":2,"la1":30.2991,"la2":30.254,"lo1":-89.0895,"lo2":-89.0444,"dy":0.0017,"dx":0.0017,"nx":28,"ny":28,"refTime":"2023-08-08T03:00:00:Z","depth":"0","parameterNumber":3,"parameterNumberName":"V-component_of_CURRENTS"},"data":[0,0,0,0,0,0,0,0,0,0,0,0,0,0,0,0,0,0,0,0,0,0,0,0,0,0,0,0,0,0,0,0,0,0,0,0,0,0,0,0,0,0,0,0,0,0,0,0,0,0,0,0,0,0,0,0,0,0,-0.0111,-0.0112,0,-0.0191,-0.0192,-0.0192,-0.0243,-0.0243,-0.0244,-0.0245,-0.0312,-0.0314,-0.0315,0,0,0,0,0,0,0,0,0,0,0,0,0,-0.001,-0.0011,-0.0111,-0.0112,-0.0114,-0.0191,-0.0192,-0.0193,-0.0242,-0.0243,-0.0244,-0.0245,-0.0312,-0.0313,-0.0315,0,0,0,0,0,0,0,0,0,0,0,0,0,-0.0064,-0.0011,-0.0111,-0.0151,-0.0156,-0.0191,-0.0192,-0.0193,-0.0242,-0.0243,-0.0244,-0.0245,-0.0312,-0.0313,-0.0315,-0.0306,0,0,-0.032,-0.0321,0,0,0,0,0,0,0,0,-0.0061,-0.0067,-0.0144,-0.0148,-0.0154,-0.0212,-0.0182,-0.0231,-0.0242,-0.0205,-0.0245,-0.0246,-0.028,-0.0284,-0.0291,-0.0309,-0.0312,-0.0321,-0.0322,-0.0322,-0.0323,0,0,0,0,0,0,0,-0.0057,-0.0064,-0.0138,-0.0145,-0.0151,-0.0169,-0.0177,-0.0191,-0.0232,-0.0208,-0.0213,-0.0229,-0.0282,-0.0289,-0.0293,-0.0313,-0.0321,-0.0322,-0.0323,-0.0324,-0.0295,-0.0293,0,0,0,0,0,0,-0.0055,-0.006,-0.0136,-0.0141,-0.0114,-0.017,-0.0179,-0.0189,-0.0232,-0.0241,-0.0228,-0.0231,-0.0286,-0.0291,-0.0296,-0.0243,-0.0322,-0.0324,-0.0325,-0.0297,-0.0295,-0.0293,0,0,0,0,0,0,-0.0052,-0.006,-0.0133,-0.0106,-0.0118,-0.0171,-0.0181,-0.019,-0.0205,-0.0248,-0.0256,-0.0236,-0.0287,-0.0293,-0.0288,-0.0248,-0.0325,-0.0326,-0.0299,-0.0296,-0.0294,-0.0166,0,0,0,0,0,0,-0.0048,-0.0058,-0.0051,-0.0106,-0.0119,-0.013,-0.0181,-0.0191,-0.0215,-0.0219,-0.0257,-0.0264,-0.0288,-0.0285,-0.029,-0.0252,-0.0328,-0.0301,-0.0298,-0.0295,-0.0172,-0.0159,-0.0148,0,0,0,0,0,-0.0044,-0.0031,-0.005,-0.0059,-0.0111,-0.0129,-0.0135,-0.0175,-0.0214,-0.0197,-0.0225,-0.0264,-0.0267,-0.0285,-0.0291,-0.0252,-0.0303,-0.0299,-0.0295,-0.0178,-0.0162,-0.0148,0,0,0,0,0,0,0.002,-0.0037,-0.0059,-0.0062,-0.0084,-0.0138,-0.0131,-0.0173,-0.0184,-0.0191,-0.0241,-0.0247,-0.0231,-0.0259,-0.0277,-0.0234,-0.0291,-0.0288,-0.02,-0.0185,-0.0173,-0.0147,-0.0329,0,0,0,0,0,0.0037,0.003,-0.002,-0.0019,-0.0027,-0.0081,-0.0094,-0.0123,-0.0152,-0.016,-0.0187,-0.021,-0.0217,-0.0216,-0.0229,-0.0202,-0.0232,-0.0181,-0.0169,-0.0158,-0.0141,-0.0155,-0.0142,-0.0279,-0.0279,-0.0279,0,0,0.0055,0.0028,0.0021,-0.0006,-0.0027,-0.0012,-0.0088,-0.0099,-0.0082,-0.0164,-0.0136,-0.0173,-0.0204,-0.0171,-0.0166,-0.0188,-0.0132,-0.0153,-0.0143,-0.0132,-0.0149,-0.0136,-0.0124,-0.0276,-0.0277,-0.0277,0,0,0.0099,0.0076,0.0088,0.0083,0.0055,0.0037,0.0034,-0.0009,-0.0017,-0.0006,-0.0057,-0.0065,-0.0078,-0.0081,-0.0089,-0.0017,-0.0075,-0.0026,0.0069,0.0056,0.0067,0.0077,0.0067,0.0074,-0.0009,-0.0009,-0.0009,0,0.0116,0.0135,0.0094,0.0115,0.0121,0.0064,0.0095,0.009,0.0056,0.0062,0.0024,0.0005,-0.0028,0.001,0.0038,0.0013,-0.0007,0.0016,0.0073,0.0081,0.0089,0.0076,0.0083,-0.0002,-0.0003,-0.0004,-0.0005,0,0.0174,0.0195,0.0209,0.0223,0.0234,0.025,0.0236,0.0251,0.0224,0.0205,0.022,0.0175,0.0164,0.0154,0.012,0.0165,0.013,0.0081,0.0037,0.0111,0.0092,0.0097,0.0007,0.0005,0.0003,0.0001,0,0,0.0174,0.0234,0.0236,0.0273,0.029,0.03,0.0358,0.0384,0.0411,0.0388,0.0421,0.0402,0.0354,0.0342,0.0291,0.0286,0.0318,0.022,0.0216,0.0215,0.0296,0.0278,0.0281,0.0277,0.0278,0.0279,0.0266,0,0.0225,0.0295,0.0315,0.0399,0.0437,0.044,0.0499,0.0518,0.0518,0.0546,0.0503,0.0509,0.0434,0.0423,0.0412,0.034,0.0335,0.0327,0.0221,0.0219,0.0197,0.0287,0.0317,0.0308,0.027,0.027,0.0271,0,0.0271,0.0314,0.0398,0.0492,0.0508,0.0557,0.0631,0.0675,0.0709,0.0707,0.0708,0.0659,0.0665,0.057,0.0511,0.0509,0.0421,0.0356,0.0353,0.0297,0.021,0.0225,0.0316,0.0114,0.0277,0.0276,0.0276,0,0.0285,0.0376,0.0449,0.0476,0.0567,0.0615,0.0666,0.0716,0.0764,0.0804,0.0832,0.081,0.08,0.0709,0.0584,0.0548,0.0505,0.0429,0.0332,0.0328,0.0314,0.0308,0.0202,0.0381,0.0381,0.0381,0.0381,0,0.0329,0.0388,0.0461,0.0499,0.0594,0.0646,0.0742,0.0787,0.0859,0.0937,0.0908,0.0956,0.0832,0.0786,0.065,0.0531,0.0556,0.0377,0.0336,0.036,0.0359,0.0146,0.0042,0.038,0.038,0.038,0.0381,0,0.0341,0.0388,0.0473,0.0568,0.0604,0.0665,0.079,0.0861,0.0926,0.1029,0.105,0.1074,0.1036,0.0903,0.0765,0.0623,0.04,0.0434,0.0478,0.0443,0.0153,0.0057,-0.0071,-0.0146,0.0337,0.0337,0.0336,0,0.0359,0.0398,0.0501,0.055,0.0598,0.0697,0.0776,0.0875,0.0962,0.1106,0.1167,0.1176,0.1218,0.1035,0.0798,0.0594,0.04,0.0444,0.0373,0.0172,0.0033,-0.005,-0.011,0.0405,0.0405,0.0406,0.0406,0,0.0385,0.041,0.0479,0.0573,0.0657,0.0772,0.0896,0.0978,0.1118,0.1238,0.1391,0.1446,0.1294,0.1137,0.0849,0.0681,0.0322,0.044,0.0224,0.009,0.0002,-0.0101,0.0369,0.0408,0.0408,0.0408,0.0408,0.0408,0.039,0.0437,0.0517,0.0614,0.0716,0.0862,0.0983,0.1135,0.1319,0.1573,0.1579,0.1747,0.1443,0.1081,0.081,0.031,0.0301,0.0152,0.0057,-0.0006,-0.0091,0.039,0.0379,0.0379,0.0379,0.0378,0.0378,0,0.0394,0.0464,0.0559,0.0695,0.0826,0.0878,0.1084,0.125,0.1502,0.1735,0.1922,0.1895,0.1499,0.1046,0.0369,0.0,-0.0145,-0.0208,-0.0329,-0.0369,0.0057,0.0044,-0.003,-0.003,-0.003,-0.0029,-0.0029,-0.0029,0.0405,0.0488,0.0555,0.0771,0.0883,0.1104,0.1241,0.1498,0.1714,0.2066,0.2219,0.2299,0.1886,0.0625,-0.0213,-0.039,-0.0687,-0.0721,-0.0881,-0.0619,-0.0594,-0.057,-0.0609,-0.0818,-0.0819,-0.1256,-0.126,-0.1264]}],[{"header":{"parameterUnit":"m.s-1","parameterCategory":2,"la1":30.2991,"la2":30.254,"lo1":-89.0895,"lo2":-89.0444,"dy":0.0017,"dx":0.0017,"nx":28,"ny":28,"refTime":"2023-08-08T03:00:00:Z","depth":"2","parameterNumber":2,"parameterNumberName":"U-component_of_CURRENTS"},"data":[0,0,0,0,0,0,0,0,0,0,0,0,0,0,0,0,0,0,0,0,0,0,0,0,0,0,0,0,0,0,0,0,0,0,0,0,0,0,0,0,0,0,0,0,0,0,0,0,0,0,0,0,0,0,0,0,0,0,-0.0057,-0.0056,0,0.0097,0.0099,0.0101,0.0175,0.0174,0.0174,0.0174,0.0231,0.0232,0.0234,0,0,0,0,0,0,0,0,0,0,0,0,0,-0.0308,-0.0303,-0.0058,-0.0056,-0.0054,0.0097,0.0099,0.0101,0.0175,0.0174,0.0174,0.0174,0.023,0.0232,0.0234,0,0,0,0,0,0,0,0,0,0,0,0,0,-0.0178,-0.0302,-0.0058,-0.0001,0.0005,0.0096,0.0099,0.0102,0.0175,0.0174,0.0174,0.0174,0.0229,0.0232,0.0235,0.026,0,0,0.0243,0.0244,0,0,0,0,0,0,0,0,-0.0186,-0.0169,-0.0011,-0.0005,0.0002,0.0114,0.0032,0.0149,0.0175,0.0113,0.0174,0.0173,0.0181,0.0188,0.0223,0.0262,0.0265,0.0243,0.0245,0.0246,0.0247,0,0,0,0,0,0,0,-0.0195,-0.0175,0.0006,-0.0009,-0.0001,0.001,0.0028,0.0055,0.0148,0.0118,0.0124,0.0137,0.0185,0.022,0.0224,0.0266,0.0243,0.0245,0.0247,0.0248,0.0415,0.0418,0,0,0,0,0,0,-0.0216,-0.0183,0.0001,0.0011,-0.0097,0.0015,0.0035,0.0081,0.015,0.016,0.0137,0.014,0.0216,0.0221,0.0226,0.0339,0.0246,0.0248,0.025,0.0413,0.0416,0.0419,0,0,0,0,0,0,-0.0222,-0.02,-0.0005,-0.0087,-0.0062,0.0019,0.007,0.0084,0.015,0.0165,0.0174,0.0191,0.0216,0.0223,0.0274,0.0338,0.0249,0.0252,0.0409,0.0414,0.0418,0.0513,0,0,0,0,0,0,-0.0229,-0.0202,-0.0168,-0.0087,-0.0058,0.0058,0.007,0.0087,0.0155,0.0161,0.0213,0.0216,0.0216,0.027,0.0277,0.034,0.0254,0.0406,0.0411,0.0416,0.0507,0.052,0.0532,0,0,0,0,0,-0.0238,-0.019,-0.0166,-0.0144,-0.0015,0.0059,0.0077,0.0132,0.0158,0.0191,0.0229,0.0216,0.0309,0.0274,0.0281,0.0347,0.0403,0.041,0.0416,0.0501,0.0518,0.0532,0,0,0,0,0,0,-0.0271,-0.0175,-0.0148,-0.0069,-0.0009,0.0071,0.0116,0.0154,0.0217,0.0229,0.0245,0.0251,0.0323,0.0322,0.0283,0.0413,0.0358,0.0366,0.0421,0.0436,0.0449,0.0439,0.0256,0,0,0,0,0,-0.0265,-0.0203,-0.0124,-0.0059,-0.0024,0.0054,0.0096,0.0136,0.0195,0.0226,0.0264,0.0307,0.0354,0.0381,0.0411,0.0479,0.0493,0.053,0.0542,0.0553,0.0552,0.062,0.0639,0.044,0.044,0.044,0,0,-0.0258,-0.0199,-0.0161,-0.0063,-0.0002,0.0067,0.0081,0.0158,0.0222,0.0218,0.0321,0.0348,0.038,0.0457,0.049,0.0466,0.0628,0.0561,0.057,0.0563,0.0629,0.0648,0.0665,0.0444,0.0444,0.0443,0,0,-0.0222,-0.0157,-0.0096,-0.0042,0.0044,0.0093,0.012,0.0216,0.0266,0.0351,0.0375,0.0432,0.0509,0.0546,0.0573,0.0673,0.0688,0.0704,0.0769,0.0836,0.0853,0.0867,0.095,0.097,0.0717,0.0717,0.0717,0,-0.0219,-0.0123,-0.0071,-0.0003,0.0053,0.011,0.0185,0.0246,0.0345,0.0397,0.0389,0.0536,0.0549,0.0657,0.0695,0.0701,0.0752,0.0707,0.0852,0.0866,0.088,0.096,0.0982,0.0722,0.0722,0.0721,0.0721,0,-0.0142,-0.0062,-0.0019,0.009,0.0149,0.0225,0.0302,0.0378,0.044,0.0496,0.0612,0.0642,0.0732,0.0755,0.0755,0.0878,0.0891,0.0855,0.0808,0.0905,0.0985,0.1006,0.073,0.0728,0.0727,0.0725,0,0,-0.0131,0.0009,0.0026,0.0094,0.0208,0.027,0.0378,0.0493,0.0588,0.0655,0.0776,0.0845,0.0872,0.0904,0.0927,0.0975,0.1115,0.0968,0.0969,0.1042,0.1302,0.1222,0.1237,0.1119,0.1122,0.1125,0.1334,0,-0.0077,0.0049,0.0109,0.0244,0.0326,0.0406,0.0504,0.0606,0.0694,0.0816,0.0859,0.0971,0.093,0.0998,0.1042,0.1103,0.117,0.1063,0.1203,0.1207,0.1117,0.1257,0.1102,0.1267,0.1354,0.1357,0.136,0,-0.0012,0.0068,0.0196,0.0346,0.0391,0.0478,0.0655,0.0748,0.0899,0.0969,0.107,0.1117,0.1231,0.1162,0.131,0.1257,0.1293,0.1311,0.1319,0.1216,0.1164,0.1178,0.1301,0.1394,0.1391,0.1389,0.1387,0,-0.0018,0.0135,0.0239,0.0291,0.0459,0.055,0.065,0.0806,0.0906,0.1085,0.1182,0.1295,0.1398,0.144,0.1496,0.1432,0.1642,0.1553,0.1514,0.1511,0.1386,0.1364,0.1648,0.1648,0.1647,0.1647,0.1646,0,0.0026,0.0115,0.0254,0.0321,0.0464,0.0576,0.0745,0.086,0.1031,0.1168,0.1269,0.1399,0.1475,0.1596,0.1588,0.1648,0.1734,0.1559,0.1566,0.1418,0.1398,0.1489,0.1467,0.1654,0.1653,0.1651,0.165,0,0.0021,0.0106,0.0236,0.041,0.0473,0.058,0.0791,0.0905,0.1077,0.1266,0.1336,0.1538,0.1711,0.1775,0.189,0.1793,0.183,0.1823,0.1656,0.1635,0.1627,0.1609,0.1792,0.1791,0.179,0.179,0.1789,0,0.0034,0.0097,0.0276,0.0348,0.044,0.0605,0.0719,0.0912,0.1033,0.134,0.1426,0.1676,0.179,0.1944,0.1859,0.1863,0.1929,0.1728,0.1526,0.1657,0.1646,0.1629,0.1612,0.1436,0.1433,0.143,0.1428,0,0.0052,0.011,0.0205,0.0345,0.0474,0.0611,0.0793,0.0889,0.1128,0.129,0.1539,0.1656,0.18,0.1763,0.1768,0.1703,0.1698,0.1664,0.1914,0.1388,0.1328,0.1314,0.1309,0.1403,0.1405,0.1407,0.1409,0.141,0.0055,0.011,0.0224,0.0358,0.0475,0.061,0.0731,0.0901,0.1081,0.1324,0.1464,0.1599,0.1601,0.1502,0.1503,0.1495,0.1506,0.1434,0.1441,0.1451,0.1337,0.1275,0.1322,0.1324,0.1325,0.1327,0.1328,0,0.0084,0.0147,0.0238,0.039,0.0481,0.0585,0.0773,0.0873,0.1062,0.1234,0.1393,0.1255,0.1239,0.1347,0.1244,0.1164,0.1106,0.1192,0.1148,0.117,0.119,0.1061,0.0975,0.0975,0.0975,0.0975,0,0,0.0109,0.0188,0.0234,0.0372,0.0479,0.0645,0.0756,0.0885,0.1007,0.1078,0.1144,0.1167,0.1232,0.1085,0.1042,0.1066,0.1116,0.1011,0.1275,0.1243,0.1265,0.1286,0.1106,0,0,0,0,0]},{"header":{"parameterUnit":"m.s-1","parameterCategory":2,"la1":30.2991,"la2":30.254,"lo1":-89.0895,"lo2":-89.0444,"dy":0.0017,"dx":0.0017,"nx":28,"ny":28,"refTime":"2023-08-08T03:00:00:Z","depth":"2","parameterNumber":3,"parameterNumberName":"V-component_of_CURRENTS"},"data":[0,0,0,0,0,0,0,0,0,0,0,0,0,0,0,0,0,0,0,0,0,0,0,0,0,0,0,0,0,0,0,0,0,0,0,0,0,0,0,0,0,0,0,0,0,0,0,0,0,0,0,0,0,0,0,0,0,0,0.0053,0.0052,0,-0.0007,-0.0008,-0.0009,-0.0111,-0.0113,-0.0115,-0.0117,-0.0255,-0.0257,-0.0259,0,0,0,0,0,0,0,0,0,0,0,0,0,0.0085,0.0085,0.0053,0.0052,0.0051,-0.0007,-0.0008,-0.0009,-0.0111,-0.0113,-0.0116,-0.0118,-0.0254,-0.0257,-0.0259,0,0,0,0,0,0,0,0,0,0,0,0,0,0.0054,0.0085,0.0053,-0.0008,-0.0014,-0.0007,-0.0008,-0.0009,-0.011,-0.0113,-0.0116,-0.0119,-0.0254,-0.0256,-0.0259,-0.0215,0,0,-0.0267,-0.0268,0,0,0,0,0,0,0,0,0.0056,0.0053,0.0002,-0.0003,-0.001,-0.0056,-0.0048,-0.0082,-0.0109,-0.0072,-0.0117,-0.0121,-0.0194,-0.0202,-0.0204,-0.0222,-0.0227,-0.0267,-0.0269,-0.027,-0.0271,0,0,0,0,0,0,0,0.0058,0.0055,0.003,0.0002,-0.0006,-0.003,-0.0038,-0.0054,-0.0116,-0.0076,-0.0084,-0.0091,-0.0198,-0.0201,-0.0208,-0.0229,-0.0267,-0.027,-0.0271,-0.0272,-0.0362,-0.0363,0,0,0,0,0,0,0.0066,0.0057,0.0032,0.0028,0.0015,-0.0028,-0.0037,-0.0037,-0.0114,-0.0129,-0.0089,-0.0096,-0.0195,-0.0205,-0.0213,-0.0266,-0.027,-0.0273,-0.0274,-0.0361,-0.0362,-0.0363,0,0,0,0,0,0,0.0068,0.0065,0.0034,0.004,0.0034,-0.0026,-0.0025,-0.0037,-0.008,-0.0123,-0.014,-0.0125,-0.0197,-0.021,-0.026,-0.0269,-0.0274,-0.0276,-0.036,-0.0361,-0.0362,-0.0307,0,0,0,0,0,0,0.0069,0.0066,0.0054,0.0041,0.0034,0.0019,-0.0023,-0.0036,-0.0078,-0.0089,-0.0159,-0.0173,-0.0201,-0.0256,-0.0263,-0.0272,-0.0279,-0.0359,-0.0361,-0.0362,-0.0308,-0.0306,-0.0305,0,0,0,0,0,0.0071,0.0075,0.0054,0.005,0.0024,0.0019,0.0013,-0.0039,-0.0077,-0.0091,-0.0144,-0.0173,-0.0271,-0.0257,-0.0266,-0.0277,-0.0359,-0.036,-0.0362,-0.0309,-0.0306,-0.0305,0,0,0,0,0,0,0.0086,0.0065,0.0041,0.0038,0.0018,-0.0,-0.0019,-0.0049,-0.0098,-0.0115,-0.0171,-0.0186,-0.0238,-0.0264,-0.0249,-0.0311,-0.0323,-0.0327,-0.028,-0.0279,-0.0277,-0.0252,-0.0281,0,0,0,0,0,0.0087,0.0084,0.0058,0.0058,0.0042,0.0007,-0.0009,-0.0033,-0.0068,-0.0095,-0.0153,-0.0206,-0.024,-0.0267,-0.0304,-0.0324,-0.0347,-0.0343,-0.0341,-0.0339,-0.0327,-0.0387,-0.0389,-0.0368,-0.0368,-0.0368,0,0,0.0097,0.0084,0.0081,0.006,0.0037,0.0035,-0.0011,-0.0027,-0.0031,-0.0098,-0.0149,-0.0203,-0.0246,-0.0278,-0.0304,-0.0307,-0.0353,-0.0342,-0.0339,-0.0328,-0.0389,-0.0391,-0.0392,-0.037,-0.0369,-0.0369,0,0,0.0131,0.0098,0.0104,0.0088,0.006,0.0046,0.0034,-0.0006,-0.0039,-0.007,-0.0128,-0.019,-0.0245,-0.0281,-0.03,-0.031,-0.0345,-0.0334,-0.0299,-0.0358,-0.0359,-0.0361,-0.0366,-0.0369,-0.033,-0.033,-0.033,0,0.0136,0.0147,0.0105,0.0108,0.0101,0.0048,0.0059,0.0035,-0.0019,-0.0039,-0.0086,-0.019,-0.024,-0.0268,-0.0279,-0.0305,-0.0328,-0.0297,-0.0353,-0.0356,-0.0359,-0.0364,-0.0367,-0.0327,-0.0328,-0.0328,-0.0328,0,0.0174,0.0177,0.018,0.0165,0.0151,0.0158,0.0122,0.0093,0.0041,0.0009,-0.0058,-0.0135,-0.0196,-0.023,-0.0253,-0.0297,-0.0302,-0.0344,-0.035,-0.0357,-0.0362,-0.0367,-0.0324,-0.0325,-0.0325,-0.0326,0,0,0.0206,0.0207,0.0206,0.0226,0.0186,0.0199,0.0179,0.016,0.016,0.0064,0.0045,-0.005,-0.0116,-0.0143,-0.0204,-0.026,-0.0299,-0.0305,-0.0309,-0.0293,-0.0391,-0.0353,-0.0355,-0.0357,-0.0358,-0.0359,-0.0376,0,0.0245,0.0289,0.0267,0.0311,0.0328,0.0283,0.0282,0.0255,0.0206,0.017,0.0066,0.0024,-0.0073,-0.0099,-0.0178,-0.0271,-0.0314,-0.0287,-0.0401,-0.0403,-0.0357,-0.0361,-0.0394,-0.041,-0.0381,-0.0382,-0.0382,0,0.0284,0.0313,0.0364,0.0408,0.0408,0.0429,0.0429,0.0425,0.0359,0.0315,0.0225,0.0139,0.0041,-0.0038,-0.0209,-0.019,-0.0279,-0.0356,-0.0359,-0.0346,-0.0376,-0.0407,-0.042,-0.0391,-0.039,-0.039,-0.0389,0,0.035,0.0389,0.0444,0.0451,0.0474,0.0499,0.0512,0.047,0.0484,0.0412,0.0406,0.0246,0.02,0.0025,-0.0151,-0.0183,-0.032,-0.0385,-0.0425,-0.0421,-0.0481,-0.048,-0.0487,-0.0487,-0.0487,-0.0487,-0.0487,0,0.0409,0.0461,0.0492,0.053,0.0614,0.059,0.0659,0.0643,0.0621,0.065,0.0494,0.0483,0.021,0.0089,-0.0101,-0.0263,-0.0286,-0.0405,-0.0431,-0.0459,-0.0456,-0.0474,-0.0473,-0.0488,-0.0487,-0.0487,-0.0487,0,0.0482,0.0491,0.058,0.0631,0.0655,0.0722,0.0789,0.0835,0.0797,0.0832,0.0818,0.0672,0.0503,0.0256,0.0004,-0.0151,-0.0337,-0.0379,-0.0361,-0.0385,-0.0408,-0.0403,-0.0437,-0.0436,-0.0435,-0.0435,-0.0434,0,0.0534,0.0579,0.0672,0.0734,0.0771,0.0857,0.0919,0.0924,0.0964,0.0951,0.0977,0.0846,0.072,0.0385,0.0069,-0.023,-0.0267,-0.0381,-0.0459,-0.0384,-0.0407,-0.0403,-0.04,-0.051,-0.051,-0.051,-0.051,0,0.0634,0.0659,0.0727,0.0851,0.0946,0.1049,0.1134,0.1184,0.1183,0.1195,0.1192,0.1096,0.0776,0.0402,0.0028,-0.0154,-0.0352,-0.0386,-0.0343,-0.0502,-0.0451,-0.0473,-0.0468,-0.0511,-0.0511,-0.0511,-0.0511,-0.0511,0.0711,0.0781,0.086,0.098,0.1089,0.1208,0.1296,0.1359,0.142,0.1399,0.1307,0.11,0.0666,0.0094,-0.0133,-0.0311,-0.0329,-0.0454,-0.0456,-0.0457,-0.0447,-0.0397,-0.0441,-0.0441,-0.044,-0.044,-0.044,0,0.0792,0.0859,0.0983,0.1131,0.1264,0.129,0.1414,0.1472,0.1542,0.1425,0.1351,0.0789,0.0396,0.0045,-0.0256,-0.0457,-0.0477,-0.0472,-0.0517,-0.0516,-0.0516,-0.051,-0.052,-0.052,-0.052,-0.052,0,0,0.0846,0.0955,0.1017,0.1238,0.1342,0.1499,0.1563,0.1635,0.1565,0.1352,0.1117,0.0785,0.0303,0.0005,-0.0265,-0.0356,-0.0353,-0.0345,-0.0273,-0.0294,-0.0289,-0.0513,-0.0504,0,0,0,0,0]}],[{"header":{"parameterUnit":"m.s-1","parameterCategory":2,"la1":30.2991,"la2":30.254,"lo1":-89.0895,"lo2":-89.0444,"dy":0.0017,"dx":0.0017,"nx":28,"ny":28,"refTime":"2023-08-08T03:00:00:Z","depth":"4","parameterNumber":2,"parameterNumberName":"U-component_of_CURRENTS"},"data":[0,0,0,0,0,0,0,0,0,0,0,0,0,0,0,0,0,0,0,0,0,0,0,0,0,0,0,0,0,0,0,0,0,0,0,0,0,0,0,0,0,0,0,0,0,0,0,0,0,0,0,0,0,0,0,0,0,0,0.0107,0.0108,0,0.0141,0.0141,0.0141,0.0139,0.0139,0.0138,0.0138,0.0118,0.0117,0.0117,0,0,0,0,0,0,0,0,0,0,0,0,0,0.0034,0.0035,0.0107,0.0108,0.0109,0.0141,0.0141,0.0141,0.0139,0.0139,0.0138,0.0138,0.0118,0.0118,0.0117,0,0,0,0,0,0,0,0,0,0,0,0,0,0.0063,0.0036,0.0107,0.0114,0.0116,0.0141,0.0141,0.0141,0.0139,0.0139,0.0138,0.0138,0.0118,0.0118,0.0117,0.0118,0,0,0.0115,0.0115,0,0,0,0,0,0,0,0,0.0061,0.0065,0.0113,0.0114,0.0115,0.0139,0.0108,0.0132,0.0139,0.0126,0.0138,0.0138,0.0123,0.0122,0.0124,0.0117,0.0116,0.0115,0.0115,0.0114,0.0114,0,0,0,0,0,0,0,0.0059,0.0064,0.0117,0.0114,0.0115,0.0114,0.0117,0.0113,0.0121,0.0127,0.0128,0.0138,0.0122,0.0124,0.0123,0.0116,0.0115,0.0115,0.0114,0.0114,0.0096,0.0096,0,0,0,0,0,0,0.0064,0.0062,0.0116,0.0118,0.0092,0.0116,0.012,0.0128,0.0122,0.0123,0.0138,0.0138,0.0125,0.0124,0.0122,0.0114,0.0114,0.0114,0.0114,0.0096,0.0096,0.0096,0,0,0,0,0,0,0.0062,0.0068,0.0115,0.0094,0.01,0.0118,0.0128,0.0129,0.0134,0.0132,0.0131,0.0142,0.0125,0.0123,0.0119,0.0113,0.0114,0.0113,0.0096,0.0096,0.0096,0.0103,0,0,0,0,0,0,0.006,0.0067,0.0067,0.0094,0.0102,0.0136,0.0128,0.013,0.0143,0.0142,0.0135,0.0133,0.0125,0.012,0.0119,0.0112,0.0113,0.0096,0.0096,0.0096,0.0102,0.0103,0.0103,0,0,0,0,0,0.0057,0.0061,0.0067,0.0073,0.0104,0.0137,0.014,0.0149,0.0143,0.0151,0.0141,0.0133,0.0117,0.012,0.0118,0.0111,0.0096,0.0096,0.0096,0.0102,0.0103,0.0103,0,0,0,0,0,0,0.0036,0.0063,0.0069,0.0083,0.0112,0.0138,0.0146,0.0152,0.0151,0.0146,0.0136,0.0133,0.0126,0.012,0.0123,0.0105,0.0104,0.0103,0.011,0.011,0.011,0.0129,0.0112,0,0,0,0,0,0.0032,0.004,0.0072,0.0088,0.01,0.0123,0.0134,0.0145,0.0154,0.0153,0.0147,0.0135,0.0123,0.0118,0.0111,0.0105,0.0118,0.0098,0.0098,0.0098,0.0112,0.0104,0.0105,0.0095,0.0095,0.0095,0,0,0.003,0.0047,0.0052,0.0084,0.0104,0.013,0.0128,0.0154,0.0171,0.015,0.0157,0.0138,0.0123,0.0114,0.0109,0.0108,0.0114,0.0098,0.0098,0.0113,0.0104,0.0105,0.0106,0.0095,0.0095,0.0095,0,0,0.0043,0.0048,0.0062,0.0085,0.0121,0.0135,0.0145,0.0171,0.0174,0.0182,0.0164,0.0147,0.0136,0.0122,0.0113,0.0112,0.0115,0.01,0.0115,0.0106,0.0107,0.0108,0.0156,0.0161,0.0098,0.0098,0.0098,0,0.004,0.0067,0.0074,0.0101,0.0124,0.014,0.017,0.0179,0.0197,0.02,0.0187,0.0163,0.0143,0.0133,0.0123,0.0113,0.0125,0.0115,0.0107,0.0108,0.0109,0.0157,0.0163,0.0099,0.0099,0.0099,0.0098,0,0.007,0.0092,0.0107,0.0142,0.0163,0.0194,0.0215,0.0223,0.0223,0.0229,0.022,0.0191,0.0175,0.0158,0.0137,0.0127,0.0142,0.0109,0.0109,0.0111,0.0161,0.0167,0.0099,0.0099,0.0099,0.0099,0,0,0.0066,0.0116,0.0122,0.0148,0.0188,0.0212,0.0234,0.0261,0.0274,0.0266,0.0278,0.0238,0.0214,0.0203,0.0169,0.0156,0.0169,0.0132,0.0131,0.0185,0.0191,0.0208,0.0216,0.0124,0.0124,0.0125,0.0235,0,0.0093,0.0146,0.0162,0.0215,0.0246,0.0262,0.0283,0.0303,0.0306,0.0315,0.0286,0.0276,0.0234,0.0213,0.0195,0.0167,0.0179,0.0146,0.0177,0.018,0.0197,0.0221,0.0125,0.0239,0.024,0.0241,0.0242,0,0.0118,0.0152,0.0206,0.0256,0.0271,0.0299,0.0333,0.0352,0.0362,0.0358,0.0343,0.0321,0.03,0.0257,0.0244,0.022,0.0214,0.0203,0.0206,0.0224,0.0206,0.0229,0.0252,0.0252,0.0251,0.025,0.0249,0,0.0118,0.0181,0.0225,0.0245,0.03,0.0321,0.0344,0.0365,0.0381,0.0382,0.0389,0.0364,0.0353,0.0326,0.0297,0.0264,0.0304,0.0254,0.0287,0.0291,0.0239,0.0236,0.0269,0.0268,0.0268,0.0268,0.0268,0,0.0139,0.0174,0.023,0.0256,0.0303,0.0333,0.0372,0.0385,0.0407,0.0424,0.0405,0.0408,0.0361,0.0371,0.0338,0.0346,0.034,0.0314,0.0314,0.0244,0.024,0.0246,0.0241,0.0272,0.0271,0.027,0.027,0,0.0134,0.0173,0.0225,0.0287,0.0308,0.0338,0.0393,0.0414,0.0433,0.0455,0.0454,0.0454,0.0453,0.0448,0.0428,0.041,0.0406,0.0417,0.0404,0.0397,0.0398,0.0393,0.0466,0.0467,0.0468,0.0469,0.047,0,0.0137,0.0164,0.0239,0.027,0.0302,0.035,0.0381,0.0416,0.0432,0.0472,0.0477,0.0503,0.0494,0.0518,0.0489,0.0496,0.0471,0.0503,0.0395,0.0423,0.0415,0.0408,0.0402,0.0472,0.0472,0.0472,0.0473,0,0.0134,0.0161,0.0202,0.0268,0.0312,0.0356,0.0398,0.0418,0.0449,0.0476,0.0493,0.0505,0.0531,0.0515,0.055,0.0529,0.0488,0.0514,0.051,0.0409,0.0431,0.0421,0.0413,0.0477,0.0476,0.0476,0.0476,0,0.0122,0.0146,0.0199,0.0257,0.0316,0.0353,0.0377,0.0409,0.0437,0.0479,0.0482,0.0506,0.0523,0.0537,0.0546,0.0556,0.0523,0.0499,0.0495,0.0491,0.0441,0.047,0.0546,0,0,0,0,0,0.0106,0.0134,0.0185,0.0248,0.0309,0.0337,0.0387,0.0405,0.0443,0.0453,0.047,0.0485,0.0511,0.052,0.0529,0.0547,0.0522,0.0557,0.0491,0.05,0.0495,0.043,0,0,0,0,0,0,0.0097,0.0139,0.0173,0.0235,0.0273,0.0324,0.0357,0.0376,0.0385,0.0424,0.0434,0.047,0.049,0.0493,0.0518,0.0525,0.0482,0.0578,0.0578,0.0502,0.0498,0.0494,0.0426,0,0,0,0,0]},{"header":{"parameterUnit":"m.s-1","parameterCategory":2,"la1":30.2991,"la2":30.254,"lo1":-89.0895,"lo2":-89.0444,"dy":0.0017,"dx":0.0017,"nx":28,"ny":28,"refTime":"2023-08-08T03:00:00:Z","depth":"4","parameterNumber":3,"parameterNumberName":"V-component_of_CURRENTS"},"data":[0,0,0,0,0,0,0,0,0,0,0,0,0,0,0,0,0,0,0,0,0,0,0,0,0,0,0,0,0,0,0,0,0,0,0,0,0,0,0,0,0,0,0,0,0,0,0,0,0,0,0,0,0,0,0,0,0,0,-0.0211,-0.0211,0,-0.0275,-0.0276,-0.0276,-0.0359,-0.036,-0.0361,-0.0362,-0.0503,-0.0506,-0.0509,0,0,0,0,0,0,0,0,0,0,0,0,0,-0.0167,-0.0168,-0.0211,-0.0211,-0.0212,-0.0274,-0.0276,-0.0277,-0.0359,-0.036,-0.0361,-0.0363,-0.0503,-0.0506,-0.0509,0,0,0,0,0,0,0,0,0,0,0,0,0,-0.0206,-0.0168,-0.0211,-0.0258,-0.0263,-0.0274,-0.0276,-0.0277,-0.0358,-0.036,-0.0362,-0.0363,-0.0501,-0.0505,-0.051,-0.0502,0,0,-0.0522,-0.0524,0,0,0,0,0,0,0,0,-0.0204,-0.0208,-0.0251,-0.0255,-0.026,-0.0308,-0.0312,-0.0355,-0.0358,-0.0325,-0.0362,-0.0364,-0.0442,-0.0451,-0.0462,-0.0509,-0.0515,-0.0522,-0.0525,-0.0527,-0.0528,0,0,0,0,0,0,0,-0.0201,-0.0206,-0.0239,-0.0251,-0.0257,-0.0279,-0.0286,-0.032,-0.0377,-0.0328,-0.0333,-0.0336,-0.0446,-0.0458,-0.0467,-0.0517,-0.0522,-0.0526,-0.0529,-0.053,-0.0655,-0.0656,0,0,0,0,0,0,-0.0186,-0.0203,-0.0237,-0.024,-0.0233,-0.0278,-0.0287,-0.0293,-0.0375,-0.0388,-0.0334,-0.0339,-0.045,-0.0462,-0.0472,-0.0553,-0.0527,-0.0531,-0.0533,-0.0655,-0.0656,-0.0656,0,0,0,0,0,0,-0.0185,-0.0188,-0.0234,-0.0221,-0.0228,-0.0277,-0.0284,-0.0294,-0.0336,-0.0379,-0.0394,-0.0369,-0.0452,-0.0466,-0.0529,-0.0556,-0.0532,-0.0536,-0.0654,-0.0655,-0.0656,-0.066,0,0,0,0,0,0,-0.0183,-0.0188,-0.0199,-0.022,-0.0228,-0.0254,-0.0282,-0.0294,-0.0331,-0.0339,-0.0413,-0.0426,-0.0454,-0.0523,-0.0533,-0.0561,-0.0539,-0.0652,-0.0654,-0.0656,-0.0659,-0.0661,-0.0664,0,0,0,0,0,-0.0182,-0.018,-0.02,-0.0204,-0.0239,-0.0254,-0.0261,-0.0302,-0.0331,-0.0348,-0.0404,-0.0425,-0.0541,-0.0527,-0.0539,-0.0568,-0.0652,-0.0654,-0.0655,-0.0658,-0.0661,-0.0663,0,0,0,0,0,0,-0.0162,-0.0189,-0.0211,-0.0218,-0.0242,-0.0267,-0.0284,-0.0312,-0.0368,-0.0389,-0.0436,-0.0453,-0.0517,-0.0539,-0.0523,-0.0608,-0.0599,-0.0604,-0.0597,-0.06,-0.0603,-0.0588,-0.0543,0,0,0,0,0,-0.0162,-0.0175,-0.0201,-0.0209,-0.0222,-0.0259,-0.0276,-0.0306,-0.0347,-0.0374,-0.0428,-0.0483,-0.0527,-0.0562,-0.0601,-0.0648,-0.0644,-0.0675,-0.0677,-0.0679,-0.0675,-0.069,-0.0693,-0.0663,-0.0663,-0.0663,0,0,-0.0151,-0.0171,-0.0177,-0.0207,-0.0232,-0.0252,-0.0276,-0.0305,-0.0334,-0.038,-0.045,-0.0494,-0.054,-0.0595,-0.0626,-0.0624,-0.0683,-0.0681,-0.0682,-0.0677,-0.0692,-0.0695,-0.0698,-0.0664,-0.0664,-0.0664,0,0,-0.0136,-0.0161,-0.0173,-0.0196,-0.0236,-0.0257,-0.027,-0.0316,-0.0354,-0.0413,-0.0455,-0.0511,-0.0588,-0.0621,-0.0647,-0.0683,-0.0691,-0.0707,-0.0714,-0.0729,-0.0731,-0.0733,-0.0716,-0.0717,-0.0712,-0.0712,-0.0712,0,-0.0128,-0.015,-0.0176,-0.0198,-0.022,-0.0261,-0.0283,-0.0315,-0.0382,-0.0413,-0.044,-0.0552,-0.0594,-0.065,-0.067,-0.0688,-0.069,-0.07,-0.0731,-0.0733,-0.0735,-0.0717,-0.0717,-0.0712,-0.0712,-0.0712,-0.0712,0,-0.0128,-0.0152,-0.0159,-0.0205,-0.0229,-0.0252,-0.0296,-0.0337,-0.0391,-0.0428,-0.0507,-0.0564,-0.0631,-0.0655,-0.068,-0.0722,-0.0714,-0.0727,-0.0719,-0.0738,-0.0718,-0.0718,-0.0713,-0.0713,-0.0713,-0.0713,0,0,-0.01,-0.0149,-0.0158,-0.0184,-0.0241,-0.0258,-0.0304,-0.0354,-0.0388,-0.0464,-0.0514,-0.0595,-0.0635,-0.0665,-0.0706,-0.0725,-0.0738,-0.0739,-0.0739,-0.0712,-0.0754,-0.0714,-0.071,-0.0764,-0.0765,-0.0765,-0.0728,0,-0.0102,-0.0133,-0.0164,-0.0203,-0.0225,-0.0275,-0.031,-0.0363,-0.0417,-0.0473,-0.0537,-0.0601,-0.0636,-0.0679,-0.0705,-0.0736,-0.0743,-0.0746,-0.0748,-0.0747,-0.0703,-0.0711,-0.0767,-0.0728,-0.0728,-0.0728,-0.0728,0,-0.0108,-0.0129,-0.0161,-0.0212,-0.0227,-0.0258,-0.0325,-0.0364,-0.0435,-0.048,-0.0549,-0.0599,-0.0658,-0.068,-0.0727,-0.0732,-0.0743,-0.0753,-0.0752,-0.0714,-0.0708,-0.0712,-0.0729,-0.0729,-0.0729,-0.0729,-0.0729,0,-0.0091,-0.0134,-0.016,-0.0179,-0.0236,-0.0269,-0.0308,-0.0375,-0.0407,-0.049,-0.0518,-0.0597,-0.0637,-0.0675,-0.0701,-0.0727,-0.0719,-0.0757,-0.0719,-0.0715,-0.0758,-0.0757,-0.077,-0.077,-0.077,-0.077,-0.077,0,-0.0092,-0.0116,-0.0156,-0.0175,-0.0209,-0.0262,-0.0309,-0.0356,-0.0416,-0.0434,-0.0526,-0.0541,-0.0641,-0.0652,-0.0683,-0.0685,-0.0704,-0.0711,-0.0708,-0.0759,-0.0758,-0.0757,-0.0756,-0.0768,-0.0769,-0.0769,-0.0769,0,-0.0085,-0.0108,-0.0137,-0.0187,-0.0206,-0.0238,-0.0301,-0.0324,-0.0387,-0.0411,-0.0436,-0.0505,-0.053,-0.0581,-0.0622,-0.0648,-0.0658,-0.0645,-0.0656,-0.0655,-0.0651,-0.0651,-0.0631,-0.063,-0.0628,-0.0627,-0.0626,0,-0.0088,-0.01,-0.0139,-0.015,-0.018,-0.0227,-0.025,-0.0314,-0.0321,-0.0363,-0.0356,-0.0403,-0.0442,-0.0455,-0.0526,-0.057,-0.0581,-0.0585,-0.0667,-0.0641,-0.064,-0.0642,-0.0643,-0.0624,-0.0624,-0.0623,-0.0623,0,-0.0094,-0.0105,-0.0122,-0.0135,-0.0159,-0.0179,-0.021,-0.021,-0.0255,-0.0292,-0.0284,-0.0332,-0.0349,-0.0419,-0.0443,-0.0477,-0.0596,-0.0572,-0.0577,-0.0655,-0.0632,-0.0632,-0.0636,-0.0618,-0.0619,-0.0619,-0.062,0,-0.0099,-0.0101,-0.0112,-0.0125,-0.0138,-0.0138,-0.016,-0.0162,-0.0181,-0.0215,-0.0191,-0.0251,-0.0294,-0.0363,-0.0374,-0.042,-0.0467,-0.0503,-0.0513,-0.0519,-0.0512,-0.0469,-0.0394,0,0,0,0,0,-0.0107,-0.0101,-0.0102,-0.0109,-0.0112,-0.0122,-0.013,-0.0143,-0.0157,-0.0138,-0.0173,-0.0184,-0.0257,-0.0293,-0.0333,-0.0373,-0.048,-0.0423,-0.0527,-0.0592,-0.0598,-0.0608,0,0,0,0,0,0,-0.0112,-0.011,-0.0098,-0.009,-0.0087,-0.0091,-0.0096,-0.0103,-0.0096,-0.0115,-0.0147,-0.0187,-0.0253,-0.0224,-0.0327,-0.0345,-0.0417,-0.0464,-0.0465,-0.0589,-0.0594,-0.0598,-0.0611,0,0,0,0,0]}]]